Time,TemperatureF,DewpointF,PressureIn,WindDirection,WindDirectionDegrees,WindSpeedMPH,WindSpeedGustMPH,Humidity,HourlyPrecipIn,Conditions,Clouds,dailyrainin,SoftwareType,DateUTC
2013-09-11 00:01:00,78.9,73.6,30.04,East,86,2.0,7.0,84,0.00,,,0.00,Weather View 32 v70,2013-09-11 04:01:00,
2013-09-11 00:02:00,78.9,73.6,30.04,ESE,116,3.0,7.0,84,0.00,,,0.00,Weather View 32 v70,2013-09-11 04:02:00,
2013-09-11 00:07:00,78.8,73.5,30.04,East,96,2.0,8.0,84,0.00,,,0.00,Weather View 32 v70,2013-09-11 04:07:00,
2013-09-11 00:12:00,78.7,73.4,30.04,East,96,0.0,8.0,84,0.00,,,0.00,Weather View 32 v70,2013-09-11 04:12:00,
2013-09-11 00:17:00,78.6,73.3,30.04,East,96,0.0,8.0,84,0.00,,,0.00,Weather View 32 v70,2013-09-11 04:17:00,
2013-09-11 00:22:00,78.4,73.5,30.04,East,95,0.0,8.0,85,0.00,,,0.00,Weather View 32 v70,2013-09-11 04:22:00,
2013-09-11 00:27:00,78.4,73.5,30.04,East,96,0.0,9.0,85,0.00,,,0.00,Weather View 32 v70,2013-09-11 04:27:00,
2013-09-11 00:30:00,78.3,73.4,30.04,ESE,103,0.0,9.0,85,0.00,,,0.00,Weather View 32 v70,2013-09-11 04:30:00,
2013-09-11 00:32:00,78.3,73.4,30.04,ESE,103,0.0,9.0,85,0.00,,,0.00,Weather View 32 v70,2013-09-11 04:32:00,
2013-09-11 00:37:00,78.2,73.3,30.03,ESE,110,0.0,9.0,85,0.00,,,0.00,Weather View 32 v70,2013-09-11 04:37:00,
2013-09-11 00:42:00,78.1,73.5,30.03,ESE,110,0.0,9.0,86,0.00,,,0.00,Weather View 32 v70,2013-09-11 04:42:00,
2013-09-11 00:47:00,78.0,73.5,30.03,ESE,103,2.0,9.0,86,0.00,,,0.00,Weather View 32 v70,2013-09-11 04:47:00,
2013-09-11 00:52:00,77.9,73.4,30.03,ESE,103,0.0,9.0,86,0.00,,,0.00,Weather View 32 v70,2013-09-11 04:52:00,
2013-09-11 00:57:00,77.8,73.3,30.03,ESE,103,0.0,9.0,86,0.00,,,0.00,Weather View 32 v70,2013-09-11 04:57:00,
2013-09-11 01:02:00,77.6,73.4,30.02,ESE,103,0.0,9.0,87,0.00,,,0.00,Weather View 32 v70,2013-09-11 05:02:00,
2013-09-11 01:07:00,77.6,73.4,30.03,East,98,8.0,9.0,87,0.00,,,0.00,Weather View 32 v70,2013-09-11 05:07:00,
2013-09-11 01:12:00,77.5,73.3,30.02,ENE,66,1.0,9.0,87,0.00,,,0.00,Weather View 32 v70,2013-09-11 05:12:00,
2013-09-11 01:17:00,77.5,73.3,30.02,ESE,107,2.0,9.0,87,0.00,,,0.00,Weather View 32 v70,2013-09-11 05:17:00,
2013-09-11 01:22:00,77.4,73.2,30.02,ESE,118,0.0,9.0,87,0.00,,,0.00,Weather View 32 v70,2013-09-11 05:22:00,
2013-09-11 01:27:00,77.3,73.1,30.02,ESE,111,0.0,8.0,87,0.00,,,0.00,Weather View 32 v70,2013-09-11 05:27:00,
2013-09-11 01:30:00,77.2,73.0,30.02,ESE,106,0.0,8.0,87,0.00,,,0.00,Weather View 32 v70,2013-09-11 05:30:00,
2013-09-11 01:32:00,77.2,73.0,30.02,ESE,106,2.0,8.0,87,0.00,,,0.00,Weather View 32 v70,2013-09-11 05:32:00,
2013-09-11 01:37:00,77.2,73.4,30.02,East,101,0.0,8.0,88,0.00,,,0.00,Weather View 32 v70,2013-09-11 05:37:00,
2013-09-11 01:42:00,77.1,73.3,30.02,East,93,3.0,8.0,88,0.00,,,0.00,Weather View 32 v70,2013-09-11 05:42:00,
2013-09-11 01:47:00,77.1,73.3,30.02,East,98,0.0,8.0,88,0.00,,,0.00,Weather View 32 v70,2013-09-11 05:47:00,
2013-09-11 01:52:00,77.0,73.2,30.01,SE,132,2.0,8.0,88,0.00,,,0.00,Weather View 32 v70,2013-09-11 05:52:00,
2013-09-11 01:57:00,76.9,73.1,30.01,ESE,120,0.0,8.0,88,0.00,,,0.00,Weather View 32 v70,2013-09-11 05:57:00,
2013-09-11 02:02:00,76.9,73.1,30.01,ESE,120,0.0,8.0,88,0.00,,,0.00,Weather View 32 v70,2013-09-11 06:02:00,
2013-09-11 02:07:00,76.8,73.0,30.01,ESE,119,0.0,8.0,88,0.00,,,0.00,Weather View 32 v70,2013-09-11 06:07:00,
2013-09-11 02:12:00,76.7,72.9,30.01,ESE,120,0.0,8.0,88,0.00,,,0.00,Weather View 32 v70,2013-09-11 06:12:00,
2013-09-11 02:17:00,76.7,72.9,30.01,East,101,0.0,7.0,88,0.00,,,0.00,Weather View 32 v70,2013-09-11 06:17:00,
2013-09-11 02:22:00,76.6,72.8,30.01,East,101,0.0,7.0,88,0.00,,,0.00,Weather View 32 v70,2013-09-11 06:22:00,
2013-09-11 02:27:00,76.5,72.7,30.01,East,101,0.0,7.0,88,0.00,,,0.00,Weather View 32 v70,2013-09-11 06:27:00,
2013-09-11 02:30:00,76.5,72.7,30.01,East,98,0.0,7.0,88,0.00,,,0.00,Weather View 32 v70,2013-09-11 06:30:00,
2013-09-11 02:32:00,76.5,72.7,30.01,East,98,0.0,7.0,88,0.00,,,0.00,Weather View 32 v70,2013-09-11 06:32:00,
2013-09-11 02:37:00,76.5,72.7,30.00,East,98,0.0,7.0,88,0.00,,,0.00,Weather View 32 v70,2013-09-11 06:37:00,
2013-09-11 02:42:00,76.4,72.6,30.00,East,96,0.0,7.0,88,0.00,,,0.00,Weather View 32 v70,2013-09-11 06:42:00,
2013-09-11 02:47:00,76.4,72.6,30.00,East,101,0.0,7.0,88,0.00,,,0.00,Weather View 32 v70,2013-09-11 06:47:00,
2013-09-11 02:52:00,76.4,72.9,30.00,East,101,0.0,7.0,89,0.00,,,0.00,Weather View 32 v70,2013-09-11 06:52:00,
2013-09-11 02:57:00,76.4,72.9,30.00,East,99,0.0,7.0,89,0.00,,,0.00,Weather View 32 v70,2013-09-11 06:57:00,
2013-09-11 03:02:00,76.3,72.8,29.99,East,96,0.0,5.0,89,0.00,,,0.00,Weather View 32 v70,2013-09-11 07:02:00,
2013-09-11 03:07:00,76.2,72.7,30.00,East,96,0.0,5.0,89,0.00,,,0.00,Weather View 32 v70,2013-09-11 07:07:00,
2013-09-11 03:12:00,76.2,72.7,29.99,East,96,0.0,5.0,89,0.00,,,0.00,Weather View 32 v70,2013-09-11 07:12:00,
2013-09-11 03:17:00,76.2,72.7,29.99,East,96,0.0,5.0,89,0.00,,,0.00,Weather View 32 v70,2013-09-11 07:17:00,
2013-09-11 03:22:00,76.2,72.7,29.99,East,95,0.0,5.0,89,0.00,,,0.00,Weather View 32 v70,2013-09-11 07:22:00,
2013-09-11 03:27:00,76.2,72.7,29.99,ENE,63,0.0,6.0,89,0.00,,,0.00,Weather View 32 v70,2013-09-11 07:27:00,
2013-09-11 03:30:00,76.2,72.7,29.99,ENE,77,0.0,6.0,89,0.00,,,0.00,Weather View 32 v70,2013-09-11 07:30:00,
2013-09-11 03:32:00,76.2,72.7,29.99,ENE,76,0.0,6.0,89,0.00,,,0.00,Weather View 32 v70,2013-09-11 07:32:00,
2013-09-11 03:37:00,76.2,72.7,29.99,ENE,68,1.0,6.0,89,0.00,,,0.00,Weather View 32 v70,2013-09-11 07:37:00,
2013-09-11 03:42:00,76.3,72.8,29.99,ENE,68,0.0,6.0,89,0.00,,,0.00,Weather View 32 v70,2013-09-11 07:42:00,
2013-09-11 03:47:00,76.4,72.9,29.99,NE,49,1.0,6.0,89,0.00,,,0.00,Weather View 32 v70,2013-09-11 07:47:00,
2013-09-11 03:53:00,76.4,72.9,29.99,NE,52,0.0,6.0,89,0.00,,,0.00,Weather View 32 v70,2013-09-11 07:53:00,
2013-09-11 03:58:00,76.4,72.9,29.99,NE,53,0.0,6.0,89,0.00,,,0.00,Weather View 32 v70,2013-09-11 07:58:00,
2013-09-11 04:03:00,76.4,72.9,29.99,NE,53,0.0,6.0,89,0.00,,,0.00,Weather View 32 v70,2013-09-11 08:03:00,
2013-09-11 04:08:00,76.3,72.8,29.99,NE,53,1.0,6.0,89,0.00,,,0.00,Weather View 32 v70,2013-09-11 08:08:00,
2013-09-11 04:13:00,76.3,72.8,29.99,NE,47,0.0,6.0,89,0.00,,,0.00,Weather View 32 v70,2013-09-11 08:13:00,
2013-09-11 04:18:00,76.2,72.7,29.99,NE,47,0.0,6.0,89,0.00,,,0.00,Weather View 32 v70,2013-09-11 08:18:00,
2013-09-11 04:23:00,76.1,72.9,29.99,NE,44,0.0,6.0,90,0.00,,,0.00,Weather View 32 v70,2013-09-11 08:23:00,
2013-09-11 04:28:00,76.0,72.8,29.99,NE,42,0.0,6.0,90,0.00,,,0.00,Weather View 32 v70,2013-09-11 08:28:00,
2013-09-11 04:30:00,76.0,72.8,29.99,NE,39,2.0,6.0,90,0.00,,,0.00,Weather View 32 v70,2013-09-11 08:30:00,
2013-09-11 04:33:00,75.9,72.7,29.99,NE,38,2.0,6.0,90,0.00,,,0.00,Weather View 32 v70,2013-09-11 08:33:00,
2013-09-11 04:38:00,75.8,73.0,29.99,NE,36,1.0,6.0,91,0.00,,,0.00,Weather View 32 v70,2013-09-11 08:38:00,
2013-09-11 04:43:00,75.8,73.0,29.99,NE,41,0.0,6.0,91,0.00,,,0.00,Weather View 32 v70,2013-09-11 08:43:00,
2013-09-11 04:48:00,75.8,73.0,29.99,ENE,76,4.0,7.0,91,0.00,,,0.00,Weather View 32 v70,2013-09-11 08:48:00,
2013-09-11 04:53:00,75.7,72.9,29.99,NE,56,0.0,7.0,91,0.00,,,0.00,Weather View 32 v70,2013-09-11 08:53:00,
2013-09-11 04:58:00,75.7,72.9,29.99,NE,56,0.0,7.0,91,0.00,,,0.00,Weather View 32 v70,2013-09-11 08:58:00,
2013-09-11 05:03:00,75.6,73.1,29.99,ENE,59,0.0,7.0,92,0.00,,,0.00,Weather View 32 v70,2013-09-11 09:03:00,
2013-09-11 05:08:00,75.6,73.1,29.99,ENE,67,0.0,7.0,92,0.00,,,0.00,Weather View 32 v70,2013-09-11 09:08:00,
2013-09-11 05:13:00,75.6,73.1,29.99,ENE,65,0.0,7.0,92,0.00,,,0.00,Weather View 32 v70,2013-09-11 09:13:00,
2013-09-11 05:18:00,75.6,73.1,29.99,ENE,65,0.0,7.0,92,0.00,,,0.00,Weather View 32 v70,2013-09-11 09:18:00,
2013-09-11 05:23:00,75.5,73.0,29.99,ENE,65,0.0,7.0,92,0.00,,,0.00,Weather View 32 v70,2013-09-11 09:23:00,
2013-09-11 05:28:00,75.5,73.0,29.99,NE,36,0.0,7.0,92,0.00,,,0.00,Weather View 32 v70,2013-09-11 09:28:00,
2013-09-11 05:30:00,75.5,73.0,29.99,NE,36,0.0,7.0,92,0.00,,,0.00,Weather View 32 v70,2013-09-11 09:30:00,
2013-09-11 05:33:00,75.5,73.0,29.99,NE,41,2.0,7.0,92,0.00,,,0.00,Weather View 32 v70,2013-09-11 09:33:00,
2013-09-11 05:38:00,75.5,73.0,29.99,NE,41,0.0,7.0,92,0.00,,,0.00,Weather View 32 v70,2013-09-11 09:38:00,
2013-09-11 05:43:00,75.5,73.0,29.99,NE,36,2.0,7.0,92,0.00,,,0.00,Weather View 32 v70,2013-09-11 09:43:00,
2013-09-11 05:48:00,75.5,73.0,29.99,NE,40,2.0,7.0,92,0.00,,,0.00,Weather View 32 v70,2013-09-11 09:48:00,
2013-09-11 05:53:00,75.5,73.0,30.00,NE,56,3.0,7.0,92,0.00,,,0.00,Weather View 32 v70,2013-09-11 09:53:00,
2013-09-11 05:58:00,75.6,73.1,30.00,NE,56,0.0,7.0,92,0.00,,,0.00,Weather View 32 v70,2013-09-11 09:58:00,
2013-09-11 06:03:00,75.6,73.1,30.01,ENE,61,0.0,7.0,92,0.00,,,0.00,Weather View 32 v70,2013-09-11 10:03:00,
2013-09-11 06:08:00,75.6,72.8,30.00,NE,54,0.0,7.0,91,0.00,,,0.00,Weather View 32 v70,2013-09-11 10:08:00,
2013-09-11 06:13:00,75.6,73.1,30.01,NE,51,0.0,7.0,92,0.00,,,0.00,Weather View 32 v70,2013-09-11 10:13:00,
2013-09-11 06:18:00,75.6,72.8,30.01,NE,51,0.0,7.0,91,0.00,,,0.00,Weather View 32 v70,2013-09-11 10:18:00,
2013-09-11 06:23:00,75.5,72.7,30.01,NE,49,4.0,7.0,91,0.00,,,0.00,Weather View 32 v70,2013-09-11 10:23:00,
2013-09-11 06:28:00,75.5,72.7,30.01,NE,46,0.0,7.0,91,0.00,,,0.00,Weather View 32 v70,2013-09-11 10:28:00,
2013-09-11 06:30:00,75.5,72.7,30.01,ENE,72,3.0,7.0,91,0.00,,,0.00,Weather View 32 v70,2013-09-11 10:30:00,
2013-09-11 06:33:00,75.5,72.7,30.01,ENE,62,2.0,7.0,91,0.00,,,0.00,Weather View 32 v70,2013-09-11 10:33:00,
2013-09-11 06:38:00,75.5,72.7,30.01,NE,43,5.0,7.0,91,0.00,,,0.00,Weather View 32 v70,2013-09-11 10:38:00,
2013-09-11 06:43:00,75.5,72.7,30.01,ENE,68,0.0,7.0,91,0.00,,,0.00,Weather View 32 v70,2013-09-11 10:43:00,
2013-09-11 06:48:00,75.6,72.8,30.01,ENE,61,0.0,7.0,91,0.00,,,0.00,Weather View 32 v70,2013-09-11 10:48:00,
2013-09-11 06:53:00,75.6,72.8,30.01,ENE,63,0.0,7.0,91,0.00,,,0.00,Weather View 32 v70,2013-09-11 10:53:00,
2013-09-11 06:58:00,75.6,72.8,30.02,East,80,0.0,7.0,91,0.00,,,0.00,Weather View 32 v70,2013-09-11 10:58:00,
2013-09-11 07:03:00,75.5,72.7,30.02,ENE,76,0.0,7.0,91,0.00,,,0.00,Weather View 32 v70,2013-09-11 11:03:00,
2013-09-11 07:08:00,75.5,72.7,30.02,ENE,71,0.0,7.0,91,0.00,,,0.00,Weather View 32 v70,2013-09-11 11:08:00,
2013-09-11 07:13:00,75.5,72.7,30.02,ENE,68,0.0,7.0,91,0.00,,,0.00,Weather View 32 v70,2013-09-11 11:13:00,
2013-09-11 07:18:00,75.5,72.7,30.02,NNE,23,0.0,7.0,91,0.00,,,0.00,Weather View 32 v70,2013-09-11 11:18:00,
2013-09-11 07:23:00,75.5,72.7,30.02,NNE,25,4.0,10.0,91,0.00,,,0.00,Weather View 32 v70,2013-09-11 11:23:00,
2013-09-11 07:28:00,75.5,72.7,30.02,NE,52,1.0,10.0,91,0.00,,,0.00,Weather View 32 v70,2013-09-11 11:28:00,
2013-09-11 07:30:00,75.5,72.7,30.02,NE,48,2.0,10.0,91,0.00,,,0.00,Weather View 32 v70,2013-09-11 11:30:00,
2013-09-11 07:33:00,75.6,72.8,30.02,NNE,13,0.0,10.0,91,0.00,,,0.00,Weather View 32 v70,2013-09-11 11:33:00,
2013-09-11 07:38:00,75.7,72.9,30.02,NE,41,3.0,10.0,91,0.00,,,0.00,Weather View 32 v70,2013-09-11 11:38:00,
2013-09-11 07:43:00,75.8,73.0,30.02,NE,40,0.0,10.0,91,0.00,,,0.00,Weather View 32 v70,2013-09-11 11:43:00,
2013-09-11 07:48:00,76.0,73.2,30.02,NE,46,0.0,10.0,91,0.00,,,0.00,Weather View 32 v70,2013-09-11 11:48:00,
2013-09-11 07:53:00,76.3,73.1,30.02,ENE,76,0.0,10.0,90,0.00,,,0.00,Weather View 32 v70,2013-09-11 11:53:00,
2013-09-11 07:58:00,76.5,73.3,30.02,NNE,28,6.0,10.0,90,0.00,,,0.00,Weather View 32 v70,2013-09-11 11:58:00,
2013-09-11 08:03:00,76.7,73.5,30.02,ENE,57,0.0,10.0,90,0.00,,,0.00,Weather View 32 v70,2013-09-11 12:03:00,
2013-09-11 08:08:00,77.0,73.8,30.02,NE,53,1.0,10.0,90,0.00,,,0.00,Weather View 32 v70,2013-09-11 12:08:00,
2013-09-11 08:13:00,77.4,73.9,30.02,NNE,25,0.0,10.0,89,0.00,,,0.00,Weather View 32 v70,2013-09-11 12:13:00,
2013-09-11 08:18:00,77.8,74.3,30.03,East,93,5.0,10.0,89,0.00,,,0.00,Weather View 32 v70,2013-09-11 12:18:00,
2013-09-11 08:23:00,78.1,74.2,30.03,NE,52,0.0,9.0,88,0.00,,,0.00,Weather View 32 v70,2013-09-11 12:23:00,
2013-09-11 08:28:00,78.6,74.7,30.03,NE,45,0.0,8.0,88,0.00,,,0.00,Weather View 32 v70,2013-09-11 12:28:00,
2013-09-11 08:30:00,78.8,74.6,30.03,NE,37,4.0,8.0,87,0.00,,,0.00,Weather View 32 v70,2013-09-11 12:30:00,
2013-09-11 08:33:00,79.0,74.8,30.03,ESE,107,4.0,8.0,87,0.00,,,0.00,Weather View 32 v70,2013-09-11 12:33:00,
2013-09-11 08:38:00,79.3,75.1,30.03,ESE,123,2.0,8.0,87,0.00,,,0.00,Weather View 32 v70,2013-09-11 12:38:00,
2013-09-11 08:43:00,79.7,75.1,30.04,ENE,78,3.0,7.0,86,0.00,,,0.00,Weather View 32 v70,2013-09-11 12:43:00,
2013-09-11 08:48:00,80.1,75.5,30.04,East,92,0.0,8.0,86,0.00,,,0.00,Weather View 32 v70,2013-09-11 12:48:00,
2013-09-11 08:53:00,80.5,75.6,30.04,East,86,3.0,8.0,85,0.00,,,0.00,Weather View 32 v70,2013-09-11 12:53:00,
2013-09-11 08:58:00,80.8,75.8,30.04,East,84,0.0,8.0,85,0.00,,,0.00,Weather View 32 v70,2013-09-11 12:58:00,
2013-09-11 09:03:00,81.2,75.9,30.04,East,92,5.0,9.0,84,0.00,,,0.00,Weather View 32 v70,2013-09-11 13:03:00,
2013-09-11 09:08:00,81.6,75.9,30.04,East,82,8.0,9.0,83,0.00,,,0.00,Weather View 32 v70,2013-09-11 13:08:00,
2013-09-11 09:13:00,81.7,76.0,30.04,SE,137,5.0,10.0,83,0.00,,,0.00,Weather View 32 v70,2013-09-11 13:13:00,
2013-09-11 09:18:00,81.9,76.2,30.04,SE,132,0.0,14.0,83,0.00,,,0.00,Weather View 32 v70,2013-09-11 13:18:00,
2013-09-11 09:23:00,82.3,75.9,30.04,East,90,6.0,14.0,81,0.00,,,0.00,Weather View 32 v70,2013-09-11 13:23:00,
2013-09-11 09:28:00,82.6,76.1,30.04,ESE,114,3.0,14.0,81,0.00,,,0.00,Weather View 32 v70,2013-09-11 13:28:00,
2013-09-11 09:30:00,82.8,76.3,30.04,NE,52,4.0,14.0,81,0.00,,,0.00,Weather View 32 v70,2013-09-11 13:30:00,
2013-09-11 09:33:00,83.0,76.2,30.04,SE,127,3.0,14.0,80,0.00,,,0.00,Weather View 32 v70,2013-09-11 13:33:00,
2013-09-11 09:38:00,83.2,76.0,30.04,East,95,8.0,14.0,79,0.00,,,0.00,Weather View 32 v70,2013-09-11 13:38:00,
2013-09-11 09:43:00,83.1,76.3,30.04,ESE,111,5.0,14.0,80,0.00,,,0.00,Weather View 32 v70,2013-09-11 13:43:00,
2013-09-11 09:48:00,83.6,76.4,30.04,SE,140,7.0,14.0,79,0.00,,,0.00,Weather View 32 v70,2013-09-11 13:48:00,
2013-09-11 09:53:00,83.7,76.5,30.04,NE,51,4.0,14.0,79,0.00,,,0.00,Weather View 32 v70,2013-09-11 13:53:00,
2013-09-11 09:58:00,83.0,76.2,30.04,ESE,114,7.0,16.0,80,0.00,,,0.00,Weather View 32 v70,2013-09-11 13:58:00,
2013-09-11 10:03:00,82.9,76.1,30.04,East,83,3.0,16.0,80,0.00,,,0.00,Weather View 32 v70,2013-09-11 14:03:00,
2013-09-11 10:08:00,83.1,76.3,30.04,East,95,5.0,16.0,80,0.00,,,0.00,Weather View 32 v70,2013-09-11 14:08:00,
2013-09-11 10:13:00,83.3,76.1,30.04,East,101,7.0,16.0,79,0.00,,,0.00,Weather View 32 v70,2013-09-11 14:13:00,
2013-09-11 10:18:00,83.3,76.1,30.04,East,88,6.0,16.0,79,0.00,,,0.00,Weather View 32 v70,2013-09-11 14:18:00,
2013-09-11 10:23:00,83.6,76.0,30.04,East,92,7.0,16.0,78,0.00,,,0.00,Weather View 32 v70,2013-09-11 14:23:00,
2013-09-11 10:28:00,84.0,76.4,30.04,ESE,107,5.0,16.0,78,0.00,,,0.00,Weather View 32 v70,2013-09-11 14:28:00,
2013-09-11 10:30:00,84.3,76.3,30.04,ESE,103,3.0,16.0,77,0.00,,,0.00,Weather View 32 v70,2013-09-11 14:30:00,
2013-09-11 10:33:00,84.7,76.3,30.04,East,86,6.0,16.0,76,0.00,,,0.00,Weather View 32 v70,2013-09-11 14:33:00,
2013-09-11 10:38:00,85.1,76.2,30.04,ENE,69,2.0,16.0,75,0.00,,,0.00,Weather View 32 v70,2013-09-11 14:38:00,
2013-09-11 10:43:00,85.0,75.3,30.04,East,91,6.0,16.0,73,0.00,,,0.00,Weather View 32 v70,2013-09-11 14:43:00,
2013-09-11 10:48:00,85.0,76.1,30.04,ESE,109,12.0,18.0,75,0.00,,,0.00,Weather View 32 v70,2013-09-11 14:48:00,
2013-09-11 10:53:00,85.5,76.2,30.03,ESE,118,5.0,18.0,74,0.00,,,0.00,Weather View 32 v70,2013-09-11 14:53:00,
2013-09-11 10:58:00,85.9,75.8,30.04,East,80,5.0,18.0,72,0.00,,,0.00,Weather View 32 v70,2013-09-11 14:58:00,
2013-09-11 11:03:00,86.1,76.0,30.03,ENE,70,5.0,18.0,72,0.00,,,0.00,Weather View 32 v70,2013-09-11 15:03:00,
2013-09-11 11:08:00,86.4,75.8,30.03,SE,127,17.0,18.0,71,0.00,,,0.00,Weather View 32 v70,2013-09-11 15:08:00,
2013-09-11 11:13:00,86.3,75.7,30.03,East,89,0.0,18.0,71,0.00,,,0.00,Weather View 32 v70,2013-09-11 15:13:00,
2013-09-11 11:18:00,86.8,75.8,30.03,ESE,119,4.0,18.0,70,0.00,,,0.00,Weather View 32 v70,2013-09-11 15:18:00,
2013-09-11 11:24:00,87.4,75.9,30.03,SE,128,6.0,18.0,69,0.00,,,0.00,Weather View 32 v70,2013-09-11 15:24:00,
2013-09-11 11:29:00,87.2,75.7,30.03,East,94,7.0,18.0,69,0.00,,,0.00,Weather View 32 v70,2013-09-11 15:29:00,
2013-09-11 11:30:00,87.2,75.7,30.03,ENE,57,2.0,18.0,69,0.00,,,0.00,Weather View 32 v70,2013-09-11 15:30:00,
2013-09-11 11:34:00,87.3,75.4,30.03,South,172,7.0,18.0,68,0.00,,,0.00,Weather View 32 v70,2013-09-11 15:34:00,
2013-09-11 11:39:00,87.2,75.3,30.03,East,95,8.0,18.0,68,0.00,,,0.00,Weather View 32 v70,2013-09-11 15:39:00,
2013-09-11 11:44:00,87.2,75.3,30.03,SE,131,9.0,18.0,68,0.00,,,0.00,Weather View 32 v70,2013-09-11 15:44:00,
2013-09-11 11:49:00,87.8,75.9,30.03,East,83,3.0,17.0,68,0.00,,,0.00,Weather View 32 v70,2013-09-11 15:49:00,
2013-09-11 11:54:00,88.6,75.7,30.02,SE,138,6.0,17.0,66,0.00,,,0.00,Weather View 32 v70,2013-09-11 15:54:00,
2013-09-11 11:59:00,88.6,75.7,30.02,ENE,76,3.0,17.0,66,0.00,,,0.00,Weather View 32 v70,2013-09-11 15:59:00,
2013-09-11 12:04:00,88.6,74.8,30.03,East,99,6.0,17.0,64,0.00,,,0.00,Weather View 32 v70,2013-09-11 16:04:00,
2013-09-11 12:09:00,88.8,74.5,30.03,East,90,7.0,17.0,63,0.00,,,0.00,Weather View 32 v70,2013-09-11 16:09:00,
2013-09-11 12:14:00,88.4,74.1,30.02,SSE,147,4.0,17.0,63,0.00,,,0.00,Weather View 32 v70,2013-09-11 16:14:00,
2013-09-11 12:19:00,88.2,74.9,30.03,SE,133,9.0,17.0,65,0.00,,,0.00,Weather View 32 v70,2013-09-11 16:19:00,
2013-09-11 12:24:00,89.0,74.7,30.02,ESE,106,4.0,17.0,63,0.00,,,0.00,Weather View 32 v70,2013-09-11 16:24:00,
2013-09-11 12:29:00,89.4,75.1,30.02,ENE,76,0.0,17.0,63,0.00,,,0.00,Weather View 32 v70,2013-09-11 16:29:00,
2013-09-11 12:30:00,89.6,75.3,30.02,SE,126,0.0,17.0,63,0.00,,,0.00,Weather View 32 v70,2013-09-11 16:30:00,
2013-09-11 12:34:00,90.2,74.9,30.02,NNE,26,0.0,17.0,61,0.00,,,0.00,Weather View 32 v70,2013-09-11 16:34:00,
2013-09-11 12:39:00,90.1,74.3,30.02,East,80,7.0,17.0,60,0.00,,,0.00,Weather View 32 v70,2013-09-11 16:39:00,
2013-09-11 12:44:00,89.3,74.0,30.02,SE,128,9.0,17.0,61,0.00,,,0.00,Weather View 32 v70,2013-09-11 16:44:00,
2013-09-11 12:49:00,88.9,74.1,30.02,NE,46,5.0,18.0,62,0.00,,,0.00,Weather View 32 v70,2013-09-11 16:49:00,
2013-09-11 12:54:00,89.1,74.3,30.01,East,90,3.0,18.0,62,0.00,,,0.00,Weather View 32 v70,2013-09-11 16:54:00,
2013-09-11 12:59:00,89.8,74.0,30.02,East,80,6.0,18.0,60,0.00,,,0.00,Weather View 32 v70,2013-09-11 16:59:00,
2013-09-11 13:04:00,90.1,73.8,30.01,NE,52,7.0,18.0,59,0.00,,,0.00,Weather View 32 v70,2013-09-11 17:04:00,
2013-09-11 13:09:00,90.6,74.2,30.01,ENE,64,7.0,18.0,59,0.00,,,0.00,Weather View 32 v70,2013-09-11 17:09:00,
2013-09-11 13:14:00,90.2,73.4,30.01,NE,44,6.0,18.0,58,0.00,,,0.00,Weather View 32 v70,2013-09-11 17:14:00,
2013-09-11 13:19:00,90.2,74.4,30.01,East,86,3.0,18.0,60,0.00,,,0.00,Weather View 32 v70,2013-09-11 17:19:00,
2013-09-11 13:24:00,90.1,73.3,30.01,SE,132,6.0,18.0,58,0.00,,,0.00,Weather View 32 v70,2013-09-11 17:24:00,
2013-09-11 13:29:00,90.2,73.4,30.01,ENE,65,9.0,18.0,58,0.00,,,0.00,Weather View 32 v70,2013-09-11 17:29:00,
2013-09-11 13:30:00,90.2,73.4,30.01,SE,132,8.0,18.0,58,0.00,,,0.00,Weather View 32 v70,2013-09-11 17:30:00,
2013-09-11 13:34:00,90.7,74.3,30.00,ESE,102,4.0,18.0,59,0.00,,,0.00,Weather View 32 v70,2013-09-11 17:34:00,
2013-09-11 13:39:00,91.0,74.1,30.00,NNE,30,0.0,18.0,58,0.00,,,0.00,Weather View 32 v70,2013-09-11 17:39:00,
2013-09-11 13:44:00,91.4,74.5,30.00,NE,48,4.0,18.0,58,0.00,,,0.00,Weather View 32 v70,2013-09-11 17:44:00,
2013-09-11 13:49:00,91.8,74.3,29.99,East,94,11.0,15.0,57,0.00,,,0.00,Weather View 32 v70,2013-09-11 17:49:00,
2013-09-11 13:55:00,91.4,73.9,30.00,East,99,8.0,15.0,57,0.00,,,0.00,Weather View 32 v70,2013-09-11 17:55:00,
2013-09-11 14:00:00,88.8,73.1,30.00,SE,126,14.0,20.0,60,0.00,,,0.00,Weather View 32 v70,2013-09-11 18:00:00,
2013-09-11 14:05:00,86.1,71.5,30.01,ENE,61,13.0,23.0,62,0.00,,,0.00,Weather View 32 v70,2013-09-11 18:05:00,
2013-09-11 14:10:00,83.5,73.1,30.01,SE,140,7.0,23.0,71,0.00,,,0.00,Weather View 32 v70,2013-09-11 18:10:00,
2013-09-11 14:15:00,81.3,73.0,30.01,SE,138,9.0,23.0,76,0.00,,,0.00,Weather View 32 v70,2013-09-11 18:15:00,
2013-09-11 14:20:00,80.2,72.7,30.01,ENE,77,4.0,23.0,78,0.00,,,0.00,Weather View 32 v70,2013-09-11 18:20:00,
2013-09-11 14:25:00,80.0,73.2,30.00,SE,130,4.0,23.0,80,0.00,,,0.00,Weather View 32 v70,2013-09-11 18:25:00,
2013-09-11 14:30:00,80.2,73.4,30.00,ESE,117,8.0,23.0,80,0.00,,,0.00,Weather View 32 v70,2013-09-11 18:30:00,
2013-09-11 14:35:00,80.6,73.5,30.00,ESE,117,0.0,23.0,79,0.00,,,0.00,Weather View 32 v70,2013-09-11 18:35:00,
2013-09-11 14:40:00,80.9,73.7,30.00,ESE,120,0.0,23.0,79,0.00,,,0.00,Weather View 32 v70,2013-09-11 18:40:00,
2013-09-11 14:45:00,81.7,74.5,29.99,ENE,74,2.0,23.0,79,0.00,,,0.00,Weather View 32 v70,2013-09-11 18:45:00,
2013-09-11 14:50:00,83.1,74.7,29.99,SE,132,0.0,23.0,76,0.00,,,0.00,Weather View 32 v70,2013-09-11 18:50:00,
2013-09-11 14:55:00,84.0,74.0,29.98,ESE,118,9.0,23.0,72,0.00,,,0.00,Weather View 32 v70,2013-09-11 18:55:00,
2013-09-11 15:00:00,84.2,73.7,29.98,East,86,7.0,23.0,71,0.00,,,0.00,Weather View 32 v70,2013-09-11 19:00:00,
2013-09-11 15:05:00,84.3,73.4,29.98,East,91,8.0,17.0,70,0.00,,,0.00,Weather View 32 v70,2013-09-11 19:05:00,
2013-09-11 15:10:00,84.5,73.2,29.98,ESE,118,5.0,17.0,69,0.00,,,0.00,Weather View 32 v70,2013-09-11 19:10:00,
2013-09-11 15:15:00,84.9,73.1,29.98,ESE,123,3.0,14.0,68,0.00,,,0.00,Weather View 32 v70,2013-09-11 19:15:00,
2013-09-11 15:20:00,85.7,73.4,29.97,ESE,119,10.0,14.0,67,0.00,,,0.00,Weather View 32 v70,2013-09-11 19:20:00,
2013-09-11 15:25:00,86.7,73.9,29.97,SE,133,1.0,13.0,66,0.00,,,0.00,Weather View 32 v70,2013-09-11 19:25:00,
2013-09-11 15:30:00,87.7,74.0,29.97,SE,134,1.0,15.0,64,0.00,,,0.00,Weather View 32 v70,2013-09-11 19:30:00,
2013-09-11 15:35:00,88.4,74.1,29.97,SE,138,4.0,15.0,63,0.00,,,0.00,Weather View 32 v70,2013-09-11 19:35:00,
2013-09-11 15:40:00,88.4,74.1,29.97,ESE,118,0.0,15.0,63,0.00,,,0.00,Weather View 32 v70,2013-09-11 19:40:00,
2013-09-11 15:45:00,88.7,74.4,29.97,ESE,122,0.0,15.0,63,0.00,,,0.00,Weather View 32 v70,2013-09-11 19:45:00,
2013-09-11 15:50:00,88.6,73.8,29.97,East,97,13.0,16.0,62,0.00,,,0.00,Weather View 32 v70,2013-09-11 19:50:00,
2013-09-11 15:55:00,88.1,74.3,29.96,ESE,109,7.0,16.0,64,0.00,,,0.00,Weather View 32 v70,2013-09-11 19:55:00,
2013-09-11 16:00:00,88.6,73.8,29.96,East,96,6.0,16.0,62,0.00,,,0.00,Weather View 32 v70,2013-09-11 20:00:00,
2013-09-11 16:05:00,88.8,73.1,29.96,ESE,110,10.0,16.0,60,0.00,,,0.00,Weather View 32 v70,2013-09-11 20:05:00,
2013-09-11 16:10:00,88.7,73.0,29.96,SSE,153,7.0,16.0,60,0.00,,,0.00,Weather View 32 v70,2013-09-11 20:10:00,
2013-09-11 16:16:00,89.0,73.2,29.96,East,90,7.0,16.0,60,0.00,,,0.00,Weather View 32 v70,2013-09-11 20:16:00,
2013-09-11 16:21:00,89.3,72.0,29.96,East,84,3.0,16.0,57,0.00,,,0.00,Weather View 32 v70,2013-09-11 20:21:00,
2013-09-11 16:26:00,89.4,72.1,29.96,NE,46,0.0,16.0,57,0.00,,,0.00,Weather View 32 v70,2013-09-11 20:26:00,
2013-09-11 16:30:00,89.8,73.0,29.96,ESE,107,0.0,16.0,58,0.00,,,0.00,Weather View 32 v70,2013-09-11 20:30:00,
2013-09-11 16:31:00,89.9,73.1,29.96,East,84,8.0,16.0,58,0.00,,,0.00,Weather View 32 v70,2013-09-11 20:31:00,
2013-09-11 16:36:00,89.9,72.6,29.96,ENE,77,4.0,16.0,57,0.00,,,0.00,Weather View 32 v70,2013-09-11 20:36:00,
2013-09-11 16:41:00,89.6,73.8,29.96,East,100,0.0,16.0,60,0.00,,,0.00,Weather View 32 v70,2013-09-11 20:41:00,
2013-09-11 16:46:00,90.0,73.7,29.96,ESE,121,5.0,16.0,59,0.00,,,0.00,Weather View 32 v70,2013-09-11 20:46:00,
2013-09-11 16:51:00,90.0,72.6,29.96,East,85,3.0,16.0,57,0.00,,,0.00,Weather View 32 v70,2013-09-11 20:51:00,
2013-09-11 16:56:00,89.9,72.0,29.96,SE,125,3.0,14.0,56,0.00,,,0.00,Weather View 32 v70,2013-09-11 20:56:00,
2013-09-11 17:01:00,89.6,72.3,29.96,East,80,6.0,14.0,57,0.00,,,0.00,Weather View 32 v70,2013-09-11 21:01:00,
2013-09-11 17:06:00,89.8,73.0,29.96,SE,129,0.0,14.0,58,0.00,,,0.00,Weather View 32 v70,2013-09-11 21:06:00,
2013-09-11 17:11:00,90.0,73.7,29.96,SE,127,2.0,14.0,59,0.00,,,0.00,Weather View 32 v70,2013-09-11 21:11:00,
2013-09-11 17:16:00,89.9,73.6,29.96,NE,48,0.0,14.0,59,0.00,,,0.00,Weather View 32 v70,2013-09-11 21:16:00,
2013-09-11 17:21:00,89.1,72.8,29.96,East,88,3.0,14.0,59,0.00,,,0.00,Weather View 32 v70,2013-09-11 21:21:00,
2013-09-11 17:26:00,88.8,73.6,29.96,SE,144,3.0,14.0,61,0.00,,,0.00,Weather View 32 v70,2013-09-11 21:26:00,
2013-09-11 17:30:00,88.7,73.0,29.96,SE,129,9.0,16.0,60,0.00,,,0.00,Weather View 32 v70,2013-09-11 21:30:00,
2013-09-11 17:31:00,88.7,73.0,29.96,East,82,3.0,16.0,60,0.00,,,0.00,Weather View 32 v70,2013-09-11 21:31:00,
2013-09-11 17:36:00,88.9,73.2,29.96,East,99,1.0,16.0,60,0.00,,,0.00,Weather View 32 v70,2013-09-11 21:36:00,
2013-09-11 17:41:00,89.0,73.2,29.95,East,98,3.0,16.0,60,0.00,,,0.00,Weather View 32 v70,2013-09-11 21:41:00,
2013-09-11 17:46:00,89.1,72.8,29.95,SE,133,0.0,16.0,59,0.00,,,0.00,Weather View 32 v70,2013-09-11 21:46:00,
2013-09-11 17:51:00,89.1,72.3,29.95,ESE,103,5.0,16.0,58,0.00,,,0.00,Weather View 32 v70,2013-09-11 21:51:00,
2013-09-11 17:56:00,88.9,71.6,29.96,SE,134,5.0,16.0,57,0.00,,,0.00,Weather View 32 v70,2013-09-11 21:56:00,
2013-09-11 18:01:00,89.0,72.7,29.96,ENE,63,5.0,16.0,59,0.00,,,0.00,Weather View 32 v70,2013-09-11 22:01:00,
2013-09-11 18:06:00,89.1,72.8,29.96,ENE,68,0.0,16.0,59,0.00,,,0.00,Weather View 32 v70,2013-09-11 22:06:00,
2013-09-11 18:11:00,89.1,72.3,29.96,ESE,106,1.0,16.0,58,0.00,,,0.00,Weather View 32 v70,2013-09-11 22:11:00,
2013-09-11 18:16:00,89.1,72.3,29.96,East,101,5.0,16.0,58,0.00,,,0.00,Weather View 32 v70,2013-09-11 22:16:00,
2013-09-11 18:21:00,89.0,71.7,29.96,East,96,5.0,16.0,57,0.00,,,0.00,Weather View 32 v70,2013-09-11 22:21:00,
2013-09-11 18:26:00,88.8,71.5,29.97,East,88,0.0,16.0,57,0.00,,,0.00,Weather View 32 v70,2013-09-11 22:26:00,
2013-09-11 18:30:00,88.6,70.8,29.97,ESE,105,0.0,16.0,56,0.00,,,0.00,Weather View 32 v70,2013-09-11 22:30:00,
2013-09-11 18:31:00,88.6,71.3,29.97,East,94,0.0,11.0,57,0.00,,,0.00,Weather View 32 v70,2013-09-11 22:31:00,
2013-09-11 18:36:00,88.6,70.8,29.97,SE,143,3.0,11.0,56,0.00,,,0.00,Weather View 32 v70,2013-09-11 22:36:00,
2013-09-11 18:41:00,88.4,70.6,29.97,East,98,0.0,11.0,56,0.00,,,0.00,Weather View 32 v70,2013-09-11 22:41:00,
2013-09-11 18:46:00,88.3,71.1,29.97,East,93,3.0,11.0,57,0.00,,,0.00,Weather View 32 v70,2013-09-11 22:46:00,
2013-09-11 18:51:00,88.2,71.0,29.97,ESE,111,4.0,11.0,57,0.00,,,0.00,Weather View 32 v70,2013-09-11 22:51:00,
2013-09-11 18:56:00,88.1,70.9,29.97,SE,134,0.0,11.0,57,0.00,,,0.00,Weather View 32 v70,2013-09-11 22:56:00,
2013-09-11 19:01:00,87.8,71.1,29.97,East,98,0.0,11.0,58,0.00,,,0.00,Weather View 32 v70,2013-09-11 23:01:00,
2013-09-11 19:06:00,87.6,71.4,29.97,East,100,0.0,11.0,59,0.00,,,0.00,Weather View 32 v70,2013-09-11 23:06:00,
2013-09-11 19:11:00,87.5,71.8,29.96,SE,125,3.0,11.0,60,0.00,,,0.00,Weather View 32 v70,2013-09-11 23:11:00,
2013-09-11 19:16:00,87.3,71.7,29.96,SE,129,0.0,11.0,60,0.00,,,0.00,Weather View 32 v70,2013-09-11 23:16:00,
2013-09-11 19:21:00,87.2,72.0,29.97,SE,130,0.0,11.0,61,0.00,,,0.00,Weather View 32 v70,2013-09-11 23:21:00,
2013-09-11 19:27:00,87.0,72.3,29.97,SE,130,2.0,11.0,62,0.00,,,0.00,Weather View 32 v70,2013-09-11 23:27:00,
2013-09-11 19:30:00,86.8,72.6,29.97,SE,129,0.0,11.0,63,0.00,,,0.00,Weather View 32 v70,2013-09-11 23:30:00,
2013-09-11 19:32:00,86.7,73.0,29.97,SE,130,0.0,11.0,64,0.00,,,0.00,Weather View 32 v70,2013-09-11 23:32:00,
2013-09-11 19:37:00,86.5,73.3,29.97,SE,129,0.0,11.0,65,0.00,,,0.00,Weather View 32 v70,2013-09-11 23:37:00,
2013-09-11 19:42:00,86.2,73.5,29.97,SE,130,0.0,10.0,66,0.00,,,0.00,Weather View 32 v70,2013-09-11 23:42:00,
2013-09-11 19:47:00,85.9,73.6,29.97,SE,129,0.0,10.0,67,0.00,,,0.00,Weather View 32 v70,2013-09-11 23:47:00,
2013-09-11 19:52:00,85.7,73.4,29.97,SE,129,0.0,8.0,67,0.00,,,0.00,Weather View 32 v70,2013-09-11 23:52:00,
2013-09-11 19:57:00,85.5,73.7,29.97,SE,129,0.0,8.0,68,0.00,,,0.00,Weather View 32 v70,2013-09-11 23:57:00,
2013-09-11 20:02:00,85.2,73.4,29.98,SE,130,0.0,8.0,68,0.00,,,0.00,Weather View 32 v70,2013-09-12 00:02:00,
2013-09-11 20:07:00,85.0,73.6,29.98,SE,130,0.0,8.0,69,0.00,,,0.00,Weather View 32 v70,2013-09-12 00:07:00,
2013-09-11 20:12:00,84.8,73.4,29.98,SE,130,0.0,8.0,69,0.00,,,0.00,Weather View 32 v70,2013-09-12 00:12:00,
2013-09-11 20:17:00,84.6,73.7,29.98,SE,130,0.0,6.0,70,0.00,,,0.00,Weather View 32 v70,2013-09-12 00:17:00,
2013-09-11 20:22:00,84.5,73.6,29.98,SE,130,0.0,4.0,70,0.00,,,0.00,Weather View 32 v70,2013-09-12 00:22:00,
2013-09-11 20:27:00,84.3,73.8,29.98,SE,130,0.0,4.0,71,0.00,,,0.00,Weather View 32 v70,2013-09-12 00:27:00,
2013-09-11 20:30:00,84.3,73.8,29.98,SE,130,0.0,4.0,71,0.00,,,0.00,Weather View 32 v70,2013-09-12 00:30:00,
2013-09-11 20:32:00,84.3,73.8,29.98,SE,129,0.0,4.0,71,0.00,,,0.00,Weather View 32 v70,2013-09-12 00:32:00,
2013-09-11 20:37:00,84.2,73.7,29.99,SE,130,1.0,4.0,71,0.00,,,0.00,Weather View 32 v70,2013-09-12 00:37:00,
2013-09-11 20:42:00,83.4,72.5,29.99,SE,134,4.0,25.0,70,0.00,,,0.00,Weather View 32 v70,2013-09-12 00:42:00,
2013-09-11 20:47:00,82.4,72.4,29.99,SE,141,10.0,25.0,72,0.00,,,0.00,Weather View 32 v70,2013-09-12 00:47:00,
2013-09-11 20:52:00,81.4,71.9,29.98,East,98,3.0,25.0,73,0.00,,,0.00,Weather View 32 v70,2013-09-12 00:52:00,
2013-09-11 20:57:00,80.8,71.7,29.98,SE,129,4.0,25.0,74,0.00,,,0.00,Weather View 32 v70,2013-09-12 00:57:00,
2013-09-11 21:02:00,80.5,71.8,29.98,East,99,3.0,25.0,75,0.00,,,0.00,Weather View 32 v70,2013-09-12 01:02:00,
2013-09-11 21:07:00,80.2,71.5,29.98,ESE,114,1.0,25.0,75,0.00,,,0.00,Weather View 32 v70,2013-09-12 01:07:00,
2013-09-11 21:12:00,80.0,71.7,29.98,ESE,113,0.0,25.0,76,0.00,,,0.00,Weather View 32 v70,2013-09-12 01:12:00,
2013-09-11 21:17:00,79.8,71.5,29.98,ESE,118,0.0,25.0,76,0.00,,,0.00,Weather View 32 v70,2013-09-12 01:17:00,
2013-09-11 21:22:00,79.6,71.7,29.98,ESE,109,2.0,25.0,77,0.00,,,0.00,Weather View 32 v70,2013-09-12 01:22:00,
2013-09-11 21:27:00,79.5,71.6,29.99,ESE,111,0.0,25.0,77,0.00,,,0.00,Weather View 32 v70,2013-09-12 01:27:00,
2013-09-11 21:30:00,79.3,71.4,29.99,ESE,113,4.0,25.0,77,0.00,,,0.00,Weather View 32 v70,2013-09-12 01:30:00,
2013-09-11 21:32:00,79.2,70.9,29.99,ESE,106,2.0,25.0,76,0.00,,,0.00,Weather View 32 v70,2013-09-12 01:32:00,
2013-09-11 21:37:00,79.1,70.1,29.99,ESE,123,3.0,25.0,74,0.00,,,0.00,Weather View 32 v70,2013-09-12 01:37:00,
2013-09-11 21:42:00,79.0,69.6,29.99,SE,124,3.0,13.0,73,0.00,,,0.00,Weather View 32 v70,2013-09-12 01:42:00,
2013-09-11 21:47:00,79.0,69.2,29.99,SE,133,3.0,13.0,72,0.00,,,0.00,Weather View 32 v70,2013-09-12 01:47:00,
2013-09-11 21:52:00,79.0,69.2,30.00,SE,136,2.0,10.0,72,0.00,,,0.00,Weather View 32 v70,2013-09-12 01:52:00,
2013-09-11 21:58:00,79.0,69.2,30.00,ESE,105,3.0,7.0,72,0.00,,,0.00,Weather View 32 v70,2013-09-12 01:58:00,
2013-09-11 22:03:00,78.9,69.1,30.00,SE,129,3.0,7.0,72,0.00,,,0.00,Weather View 32 v70,2013-09-12 02:03:00,
2013-09-11 22:08:00,78.8,69.4,30.00,ESE,102,0.0,8.0,73,0.00,,,0.00,Weather View 32 v70,2013-09-12 02:08:00,
2013-09-11 22:13:00,78.7,69.3,30.00,ESE,103,2.0,8.0,73,0.00,,,0.00,Weather View 32 v70,2013-09-12 02:13:00,
2013-09-11 22:18:00,78.7,69.7,30.00,ESE,102,0.0,8.0,74,0.00,,,0.00,Weather View 32 v70,2013-09-12 02:18:00,
2013-09-11 22:23:00,78.7,70.1,30.01,East,100,0.0,8.0,75,0.00,,,0.00,Weather View 32 v70,2013-09-12 02:23:00,
2013-09-11 22:28:00,78.7,70.1,30.01,East,100,3.0,8.0,75,0.00,,,0.00,Weather View 32 v70,2013-09-12 02:28:00,
2013-09-11 22:30:00,78.8,70.6,30.00,ESE,103,1.0,8.0,76,0.00,,,0.00,Weather View 32 v70,2013-09-12 02:30:00,
2013-09-11 22:33:00,78.8,70.6,30.00,East,95,1.0,8.0,76,0.00,,,0.00,Weather View 32 v70,2013-09-12 02:33:00,
2013-09-11 22:38:00,78.8,70.9,30.01,East,95,2.0,8.0,77,0.00,,,0.00,Weather View 32 v70,2013-09-12 02:38:00,
2013-09-11 22:43:00,78.8,70.9,30.01,East,92,0.0,8.0,77,0.00,,,0.00,Weather View 32 v70,2013-09-12 02:43:00,
2013-09-11 22:48:00,78.7,70.8,30.01,East,92,0.0,8.0,77,0.00,,,0.00,Weather View 32 v70,2013-09-12 02:48:00,
2013-09-11 22:53:00,78.6,71.1,30.01,East,92,1.0,8.0,78,0.00,,,0.00,Weather View 32 v70,2013-09-12 02:53:00,
2013-09-11 22:58:00,78.5,71.0,30.01,East,94,0.0,8.0,78,0.00,,,0.00,Weather View 32 v70,2013-09-12 02:58:00,
2013-09-11 23:03:00,78.6,71.1,30.01,East,94,0.0,8.0,78,0.00,,,0.00,Weather View 32 v70,2013-09-12 03:03:00,
2013-09-11 23:08:00,78.6,71.1,30.00,East,95,0.0,6.0,78,0.00,,,0.00,Weather View 32 v70,2013-09-12 03:08:00,
2013-09-11 23:13:00,78.5,71.0,30.00,ESE,123,3.0,6.0,78,0.00,,,0.00,Weather View 32 v70,2013-09-12 03:13:00,
2013-09-11 23:18:00,78.4,71.3,30.00,SE,125,2.0,6.0,79,0.00,,,0.00,Weather View 32 v70,2013-09-12 03:18:00,
2013-09-11 23:23:00,78.3,71.2,30.01,SE,128,0.0,6.0,79,0.00,,,0.00,Weather View 32 v70,2013-09-12 03:23:00,
2013-09-11 23:28:00,78.3,71.6,30.01,SE,125,0.0,6.0,80,0.00,,,0.00,Weather View 32 v70,2013-09-12 03:28:00,
2013-09-11 23:33:00,78.3,71.6,30.01,SE,126,0.0,6.0,80,0.00,,,0.00,Weather View 32 v70,2013-09-12 03:33:00,
2013-09-11 23:38:00,78.2,71.5,30.01,SE,125,0.0,6.0,80,0.00,,,0.00,Weather View 32 v70,2013-09-12 03:38:00,
2013-09-11 23:43:00,78.2,71.5,30.00,SE,125,0.0,6.0,80,0.00,,,0.00,Weather View 32 v70,2013-09-12 03:43:00,
2013-09-11 23:48:00,78.1,71.4,30.01,ESE,119,0.0,6.0,80,0.00,,,0.00,Weather View 32 v70,2013-09-12 03:48:00,
2013-09-11 23:53:00,77.9,71.6,30.01,ESE,105,3.0,6.0,81,0.00,,,0.00,Weather View 32 v70,2013-09-12 03:53:00,
2013-09-11 23:58:00,77.8,71.5,30.01,ESE,105,0.0,6.0,81,0.00,,,0.00,Weather View 32 v70,2013-09-12 03:58:00,